TimeCST,TemperatureF,Dew PointF,Humidity,Sea Level PressureIn,VisibilityMPH,Wind Direction,Wind SpeedMPH,Gust SpeedMPH,PrecipitationIn,Events,Conditions,WindDirDegrees,DateUTC
12:00 AM,74,72,91,29.97,12,Calm,Calm,,,,Scattered Clouds,,2012-10-29 06:00:00
5:00 AM,73.4,71.6,94,29.95,6.2,WNW,5.8,-,N/A,,Partly Cloudy,300,2012-10-29 11:00:00
6:00 AM,72,71,94,29.99,12,WNW,5.8,,,,Scattered Clouds,300,2012-10-29 12:00:00
6:00 AM,71.6,69.8,94,29.98,6.2,WNW,5.8,-,N/A,,Scattered Clouds,300,2012-10-29 12:00:00
7:00 AM,73.4,71.6,94,29.98,6.2,NW,4.6,-,N/A,,Mostly Cloudy,320,2012-10-29 13:00:00
8:00 AM,77.0,71.6,83,30.01,6.2,North,11.5,-,N/A,,Mostly Cloudy,360,2012-10-29 14:00:00
9:00 AM,79,69,65,30.04,12,NNW,10.4,,,,Partly Cloudy,340,2012-10-29 15:00:00
9:00 AM,78.8,69.8,74,30.03,6.2,NNW,10.4,-,N/A,,Scattered Clouds,340,2012-10-29 15:00:00
10:00 AM,80.6,69.8,70,30.02,6.2,North,9.2,-,N/A,,Scattered Clouds,360,2012-10-29 16:00:00
11:00 AM,82.4,69.8,66,30.00,6.2,North,9.2,-,N/A,,Mostly Cloudy,350,2012-10-29 17:00:00
12:00 PM,82,70,58,29.99,12,NNW,8.1,,,,Mostly Cloudy,340,2012-10-29 18:00:00
12:00 PM,82.4,69.8,66,29.98,6.2,NNW,8.1,-,N/A,,Mostly Cloudy,340,2012-10-29 18:00:00
1:00 PM,82.4,69.8,66,29.96,6.2,NNW,6.9,-,N/A,,Mostly Cloudy,340,2012-10-29 19:00:00
2:00 PM,82.4,69.8,66,29.94,6.2,North,8.1,-,N/A,,Mostly Cloudy,360,2012-10-29 20:00:00
3:00 PM,82,69,58,29.94,12,NW,6.9,,,,Mostly Cloudy,320,2012-10-29 21:00:00
3:00 PM,82.4,69.8,66,29.94,6.2,NW,6.9,-,N/A,,Mostly Cloudy,320,2012-10-29 21:00:00
4:00 PM,80.6,71.6,74,29.94,6.2,WNW,4.6,-,N/A,,Mostly Cloudy,300,2012-10-29 22:00:00
5:00 PM,80.6,71.6,74,29.95,6.2,WNW,3.5,-,N/A,,Scattered Clouds,290,2012-10-29 23:00:00
6:00 PM,78,73,80,29.97,12,Calm,Calm,,,,Partly Cloudy,,2012-10-30 00:00:00
6:00 PM,78.8,73.4,83,29.97,6.2,Calm,Calm,-,N/A,,Scattered Clouds,0,2012-10-30 00:00:00
9:00 PM,75,71,83,30.03,12,Calm,Calm,,,,Scattered Clouds,,2012-10-30 03:00:00